| time (UTC) | temp F | wind direction | speed MPH | gust MPH | rain 1hr in | rain 24hr in | rain mn in | humidity % | barometer mb |
| 20260905060536 | 70 | 45 | 3.0 | 5.0 | 0.00 | 1.41 | 0.00 | 98 | 1017.2 |
| 20260905055516 | 70 | 68 | 2.0 | 6.0 | 0.00 | 1.41 | 0.00 | 98 | 1017.3 |
| 20260905054518 | 70 | 45 | 2.0 | 4.0 | 0.00 | 1.41 | 0.00 | 98 | 1017.3 |
| 20260905053516 | 70 | 45 | 3.0 | 7.0 | 0.00 | 1.41 | 0.00 | 98 | 1017.2 |
| 20260905052515 | 70 | 23 | 1.0 | 4.0 | 0.00 | 1.41 | 0.00 | 98 | 1017.3 |
| 20260905051516 | 70 | 0 | 1.0 | 3.0 | 0.00 | 1.41 | 0.00 | 98 | 1017.4 |
| 20260905050516 | 70 | 45 | 1.0 | 2.0 | 0.00 | 1.41 | 0.00 | 98 | 1017.4 |
| 20260905045516 | 70 | 45 | 2.0 | 4.0 | 0.00 | 1.41 | 1.41 | 98 | 1017.3 |
| 20260905044515 | 70 | 45 | 3.0 | 5.0 | 0.00 | 1.41 | 1.41 | 98 | 1017.3 |
| 20260905043516 | 70 | 45 | 2.0 | 6.0 | 0.00 | 1.42 | 1.41 | 98 | 1017.3 |
| 20260905042516 | 70 | 23 | 3.0 | 5.0 | 0.00 | 1.44 | 1.41 | 98 | 1017.2 |
| 20260905041516 | 70 | 23 | 2.0 | 4.0 | 0.00 | 1.50 | 1.41 | 98 | 1017.2 |
| 20260905040517 | 70 | 45 | 2.0 | 5.0 | 0.00 | 1.51 | 1.41 | 98 | 1017.1 |
| 20260905035517 | 70 | 23 | 3.0 | 6.0 | 0.00 | 1.51 | 1.41 | 98 | 1017.1 |
| 20260905034516 | 70 | 23 | 3.0 | 6.0 | 0.00 | 1.51 | 1.41 | 98 | 1017.1 |
| 20260905033536 | 70 | 23 | 3.0 | 7.0 | 0.00 | 1.52 | 1.41 | 98 | 1017.0 |
| 20260905032516 | 70 | 23 | 3.0 | 5.0 | 0.00 | 1.52 | 1.41 | 98 | 1017.1 |
| 20260905031516 | 70 | 23 | 2.0 | 3.0 | 0.00 | 1.52 | 1.41 | 98 | 1017.1 |
| 20260905030537 | 70 | 23 | 1.0 | 4.0 | 0.00 | 1.52 | 1.41 | 98 | 1017.2 |
| 20260905025515 | 70 | 45 | 1.0 | 2.0 | 0.00 | 1.52 | 1.41 | 98 | 1017.1 |
| 20260905024517 | 70 | 23 | 2.0 | 5.0 | 0.00 | 1.53 | 1.41 | 98 | 1017.0 |
| 20260905023536 | 71 | 45 | 3.0 | 6.0 | 0.00 | 1.54 | 1.41 | 97 | 1016.8 |
| 20260905022515 | 71 | 45 | 2.0 | 4.0 | 0.00 | 1.55 | 1.41 | 97 | 1016.8 |
| 20260905021516 | 71 | 45 | 3.0 | 5.0 | 0.00 | 1.57 | 1.41 | 97 | 1016.7 |
| 20260905020516 | 71 | 23 | 3.0 | 5.0 | 0.00 | 1.58 | 1.41 | 97 | 1016.6 |
| 20260905015515 | 71 | 45 | 3.0 | 5.0 | 0.00 | 1.59 | 1.41 | 97 | 1016.6 |
| 20260905014515 | 71 | 45 | 1.0 | 3.0 | 0.00 | 1.59 | 1.41 | 97 | 1016.7 |
| 20260905013517 | 71 | 45 | 1.0 | 4.0 | 0.00 | 1.59 | 1.41 | 97 | 1016.7 |
| 20260905012537 | 71 | 45 | 3.0 | 6.0 | 0.00 | 1.59 | 1.41 | 97 | 1016.7 |
| 20260905011517 | 71 | 45 | 2.0 | 4.0 | 0.00 | 1.59 | 1.41 | 97 | 1016.5 |
| 20260905010517 | 71 | 45 | 1.0 | 3.0 | 0.00 | 1.59 | 1.41 | 97 | 1016.4 |
| 20260905005518 | 71 | 45 | 2.0 | 4.0 | 0.00 | 1.59 | 1.41 | 97 | 1016.3 |
| 20260905004517 | 71 | 45 | 2.0 | 4.0 | 0.00 | 1.59 | 1.41 | 96 | 1016.2 |
| 20260905003519 | 71 | 45 | 3.0 | 6.0 | 0.00 | 1.59 | 1.41 | 96 | 1016.0 |
| 20260905002517 | 71 | 68 | 3.0 | 6.0 | 0.00 | 1.59 | 1.41 | 96 | 1016.1 |
| 20260905001517 | 72 | 45 | 2.0 | 5.0 | 0.00 | 1.59 | 1.41 | 96 | 1016.3 |
| 20260905000517 | 72 | 68 | 2.0 | 4.0 | 0.00 | 1.59 | 1.41 | 96 | 1016.2 |
| 20260904235517 | 72 | 68 | 3.0 | 6.0 | 0.00 | 1.59 | 1.41 | 96 | 1015.9 |
| 20260904234517 | 72 | 68 | 4.0 | 9.0 | 0.00 | 1.59 | 1.41 | 96 | 1015.7 |
| 20260904233518 | 72 | 68 | 3.0 | 6.0 | 0.00 | 1.59 | 1.41 | 96 | 1016.1 |
| 20260904232558 | 72 | 23 | 2.0 | 4.0 | 0.00 | 1.59 | 1.41 | 96 | 1016.1 |
| 20260904231517 | 73 | 45 | 3.0 | 6.0 | 0.00 | 1.59 | 1.41 | 96 | 1015.7 |
| 20260904230517 | 73 | 45 | 4.0 | 8.0 | 0.00 | 1.59 | 1.41 | 95 | 1015.7 |
| 20260904225518 | 73 | 45 | 4.0 | 6.0 | 0.00 | 1.59 | 1.41 | 96 | 1015.8 |
| 20260904224519 | 73 | 45 | 5.0 | 8.0 | 0.00 | 1.59 | 1.41 | 95 | 1015.6 |
| 20260904223518 | 73 | 68 | 3.0 | 6.0 | 0.00 | 1.59 | 1.41 | 96 | 1015.5 |
| 20260904222517 | 73 | 68 | 5.0 | 9.0 | 0.00 | 1.59 | 1.41 | 94 | 1015.4 |
| 20260904221537 | 73 | 45 | 5.0 | 10.0 | 0.00 | 1.59 | 1.41 | 94 | 1015.2 |
| 20260904220517 | 74 | 45 | 4.0 | 7.0 | 0.00 | 1.59 | 1.41 | 95 | 1015.3 |
| 20260904215539 | 74 | 45 | 4.0 | 7.0 | 0.00 | 1.59 | 1.41 | 94 | 1015.3 |
| 20260904214517 | 74 | 45 | 5.0 | 9.0 | 0.00 | 1.59 | 1.41 | 94 | 1015.3 |
| 20260904213517 | 74 | 45 | 2.0 | 6.0 | 0.00 | 1.59 | 1.41 | 94 | 1015.2 |
| 20260904212517 | 74 | 45 | 3.0 | 7.0 | 0.00 | 1.59 | 1.41 | 94 | 1015.1 |
| 20260904211517 | 75 | 45 | 2.0 | 6.0 | 0.00 | 1.59 | 1.41 | 95 | 1015.0 |
| 20260904210517 | 75 | 45 | 3.0 | 6.0 | 0.00 | 1.59 | 1.41 | 93 | 1014.9 |
| 20260904205517 | 75 | 45 | 4.0 | 8.0 | 0.00 | 1.59 | 1.41 | 94 | 1014.8 |
| 20260904204537 | 76 | 45 | 4.0 | 8.0 | 0.00 | 1.59 | 1.41 | 93 | 1014.8 |
| 20260904203538 | 76 | 23 | 3.0 | 7.0 | 0.00 | 1.59 | 1.41 | 94 | 1014.9 |
| 20260904202518 | 76 | 68 | 3.0 | 6.0 | 0.00 | 1.59 | 1.41 | 94 | 1014.9 |
| 20260904201517 | 77 | 45 | 3.0 | 6.0 | 0.00 | 1.59 | 1.41 | 94 | 1014.8 |
| 20260904200658 | 77 | 45 | 2.0 | 5.0 | 0.00 | 1.59 | 1.41 | 94 | 1015.1 |
| 20260904195517 | 78 | 0.0 | 2.0 | 0.00 | 1.59 | 1.41 | 96 | 1015.1 | |
| 20260904194517 | 78 | 0.0 | 1.0 | 0.00 | 1.59 | 1.41 | 95 | 1015.2 | |
| 20260904193517 | 78 | 0.0 | 1.0 | 0.00 | 1.59 | 1.41 | 96 | 1015.3 | |
| 20260904192517 | 77 | 45 | 1.0 | 2.0 | 0.00 | 1.59 | 1.41 | 93 | 1015.3 |
| 20260904191538 | 78 | 0.0 | 0.0 | 0.00 | 1.59 | 1.41 | 96 | 1015.6 | |
| 20260904190539 | 77 | 0.0 | 1.0 | 0.00 | 1.59 | 1.41 | 96 | 1015.7 | |
| 20260904185520 | 77 | 0.0 | 1.0 | 0.00 | 1.59 | 1.41 | 97 | 1015.7 | |
| 20260904184517 | 77 | 0.0 | 1.0 | 0.00 | 1.59 | 1.41 | 97 | 1015.6 | |
| 20260904183517 | 76 | 0.0 | 1.0 | 0.00 | 1.59 | 1.41 | 96 | 1015.5 | |
| 20260904182517 | 77 | 0.0 | 1.0 | 0.00 | 1.59 | 1.41 | 96 | 1015.6 | |
| 20260904181517 | 76 | 0.0 | 1.0 | 0.00 | 1.59 | 1.41 | 96 | 1015.5 | |
| 20260904180517 | 76 | 225 | 1.0 | 3.0 | 0.00 | 1.59 | 1.41 | 95 | 1015.5 |
| 20260904175517 | 76 | 0.0 | 2.0 | 0.00 | 1.59 | 1.41 | 96 | 1015.4 | |
| 20260904174517 | 76 | 0.0 | 1.0 | 0.00 | 1.59 | 1.41 | 96 | 1015.4 | |
| 20260904172517 | 75 | 0.0 | 1.0 | 0.00 | 1.59 | 1.41 | 96 | 1015.6 | |
| 20260904171516 | 75 | 0.0 | 0.0 | 0.00 | 1.59 | 1.41 | 96 | 1015.9 | |
| 20260904170557 | 75 | 0.0 | 2.0 | 0.00 | 1.59 | 1.41 | 97 | 1015.8 | |
| 20260904165517 | 74 | 0.0 | 2.0 | 0.00 | 1.59 | 1.41 | 96 | 1015.8 | |
| 20260904164516 | 74 | 225 | 1.0 | 4.0 | 0.00 | 1.59 | 1.41 | 97 | 1015.9 |
| 20260904163517 | 74 | 0.0 | 1.0 | 0.00 | 1.59 | 1.41 | 97 | 1015.9 | |
| 20260904162516 | 74 | 0.0 | 2.0 | 0.00 | 1.59 | 1.41 | 97 | 1015.8 | |
| 20260904161516 | 73 | 225 | 1.0 | 3.0 | 0.00 | 1.59 | 1.41 | 97 | 1015.9 |
| 20260904160517 | 73 | 0.0 | 2.0 | 0.00 | 1.59 | 1.41 | 98 | 1015.8 | |
| 20260904155518 | 73 | 0.0 | 2.0 | 0.00 | 1.59 | 1.41 | 98 | 1015.8 | |
| 20260904154536 | 72 | 248 | 1.0 | 5.0 | 0.00 | 1.59 | 1.41 | 98 | 1015.8 |
| 20260904153516 | 72 | 225 | 1.0 | 4.0 | 0.00 | 1.59 | 1.41 | 98 | 1015.7 |
| 20260904152516 | 71 | 225 | 1.0 | 4.0 | 0.00 | 1.64 | 1.41 | 98 | 1015.6 |
| 20260904151517 | 71 | 0.0 | 2.0 | 0.00 | 1.64 | 1.41 | 98 | 1015.5 | |
| 20260904150538 | 71 | 0.0 | 3.0 | 0.00 | 1.66 | 1.41 | 98 | 1015.6 | |
| 20260904145538 | 71 | 0.0 | 2.0 | 0.00 | 1.80 | 1.41 | 98 | 1015.8 | |
| 20260904144516 | 70 | 0.0 | 1.0 | 0.00 | 1.93 | 1.41 | 99 | 1015.7 | |
| 20260904143536 | 70 | 0.0 | 1.0 | 0.00 | 1.95 | 1.41 | 99 | 1015.8 | |
| 20260904142516 | 69 | 0.0 | 0.0 | 0.00 | 1.95 | 1.41 | 99 | 1015.6 | |
| 20260904141516 | 68 | 0.0 | 1.0 | 0.00 | 1.95 | 1.41 | 99 | 1015.8 | |
| 20260904140557 | 68 | 0.0 | 0.0 | 0.00 | 1.95 | 1.41 | 98 | 1015.7 | |
| 20260904135516 | 68 | 0.0 | 0.0 | 0.00 | 1.95 | 1.41 | 98 | 1015.7 | |
| 20260904134516 | 68 | 0.0 | 1.0 | 0.00 | 1.95 | 1.41 | 98 | 1015.6 | |
| 20260904133516 | 68 | 0.0 | 2.0 | 0.00 | 1.95 | 1.41 | 98 | 1015.6 | |
| 20260904132516 | 68 | 248 | 1.0 | 3.0 | 0.00 | 1.95 | 1.41 | 98 | 1016.0 |
| 20260904131516 | 68 | 248 | 1.0 | 2.0 | 0.00 | 1.95 | 1.41 | 98 | 1016.2 |
| 20260904130516 | 68 | 0.0 | 1.0 | 0.00 | 1.95 | 1.41 | 98 | 1016.1 | |
| 20260904125516 | 68 | 225 | 1.0 | 3.0 | 0.00 | 1.95 | 1.41 | 98 | 1016.0 |
| 20260904124518 | 68 | 248 | 2.0 | 4.0 | 0.00 | 1.95 | 1.41 | 98 | 1015.9 |
| 20260904123517 | 68 | 248 | 2.0 | 6.0 | 0.00 | 1.95 | 1.41 | 98 | 1015.7 |
| 20260904122516 | 68 | 248 | 3.0 | 7.0 | 0.00 | 1.95 | 1.41 | 98 | 1015.6 |
| 20260904121518 | 68 | 270 | 3.0 | 7.0 | 0.01 | 1.95 | 1.41 | 98 | 1015.3 |
| 20260904120538 | 68 | 270 | 4.0 | 8.0 | 0.03 | 1.95 | 1.41 | 98 | 1015.0 |
| 20260904115517 | 68 | 248 | 4.0 | 11.0 | 0.03 | 1.95 | 1.41 | 98 | 1015.5 |
| 20260904114536 | 68 | 248 | 3.0 | 6.0 | 0.04 | 1.95 | 1.41 | 98 | 1015.4 |
| 20260904113516 | 68 | 248 | 3.0 | 8.0 | 0.08 | 1.95 | 1.41 | 98 | 1015.0 |
| 20260904112536 | 68 | 270 | 3.0 | 10.0 | 0.12 | 1.95 | 1.41 | 98 | 1015.2 |
| 20260904111536 | 68 | 248 | 3.0 | 6.0 | 0.12 | 1.94 | 1.40 | 98 | 1015.6 |
| 20260904110516 | 69 | 270 | 1.0 | 3.0 | 0.31 | 1.92 | 1.38 | 98 | 1015.5 |
| 20260904105536 | 69 | 90 | 3.0 | 8.0 | 0.35 | 1.92 | 1.38 | 98 | 1015.3 |
| 20260904104516 | 69 | 90 | 2.0 | 8.0 | 0.37 | 1.91 | 1.37 | 99 | 1015.5 |
| 20260904103516 | 69 | 90 | 4.0 | 9.0 | 0.49 | 1.87 | 1.33 | 98 | 1015.4 |
| 20260904102516 | 69 | 248 | 3.0 | 7.0 | 0.57 | 1.83 | 1.29 | 98 | 1015.7 |
| 20260904101517 | 69 | 90 | 3.0 | 7.0 | 0.72 | 1.82 | 1.28 | 98 | 1015.3 |
| 20260904100536 | 69 | 68 | 1.0 | 3.0 | 0.65 | 1.61 | 1.07 | 98 | 1015.5 |
| 20260904095516 | 69 | 90 | 4.0 | 8.0 | 0.67 | 1.57 | 1.03 | 99 | 1015.0 |
| 20260904094516 | 68 | 90 | 3.0 | 8.0 | 0.68 | 1.54 | 1.00 | 98 | 1015.4 |
| 20260904093516 | 68 | 90 | 2.0 | 4.0 | 0.57 | 1.38 | 0.84 | 98 | 1015.8 |
| 20260904092536 | 68 | 45 | 3.0 | 7.0 | 0.51 | 1.26 | 0.72 | 98 | 1015.2 |
| 20260904091536 | 68 | 23 | 2.0 | 4.0 | 0.41 | 1.10 | 0.56 | 98 | 1016.2 |
| 20260904090516 | 68 | 45 | 1.0 | 2.0 | 0.29 | 0.96 | 0.42 | 98 | 1016.0 |
| 20260904085536 | 68 | 45 | 2.0 | 4.0 | 0.23 | 0.90 | 0.36 | 98 | 1015.7 |
| 20260904084516 | 68 | 90 | 1.0 | 2.0 | 0.19 | 0.86 | 0.32 | 98 | 1015.6 |
| 20260904083536 | 68 | 90 | 1.0 | 4.0 | 0.14 | 0.81 | 0.27 | 98 | 1015.7 |
| 20260904082536 | 68 | 0.0 | 2.0 | 0.09 | 0.75 | 0.21 | 98 | 1016.1 | |
| 20260904081557 | 68 | 0.0 | 0.0 | 0.04 | 0.69 | 0.15 | 98 | 1016.4 | |
| 20260904080516 | 68 | 0.0 | 0.0 | 0.02 | 0.67 | 0.13 | 98 | 1015.8 | |
| 20260904075517 | 68 | 90 | 3.0 | 5.0 | 0.02 | 0.67 | 0.13 | 98 | 1014.6 |
| 20260904074522 | 68 | 45 | 2.0 | 4.0 | 0.03 | 0.67 | 0.13 | 98 | 1014.2 |
| 20260904073516 | 68 | 68 | 2.0 | 4.0 | 0.07 | 0.67 | 0.13 | 98 | 1014.9 |
| 20260904072516 | 68 | 90 | 1.0 | 2.0 | 0.12 | 0.66 | 0.12 | 97 | 1015.3 |
| 20260904071516 | 68 | 0.0 | 1.0 | 0.11 | 0.65 | 0.11 | 97 | 1016.2 | |
| 20260904070516 | 68 | 0.0 | 1.0 | 0.11 | 0.65 | 0.11 | 97 | 1015.7 | |
| 20260904065516 | 68 | 0.0 | 1.0 | 0.11 | 0.65 | 0.11 | 97 | 1015.6 | |
| 20260904064515 | 68 | 45 | 4.0 | 8.0 | 0.10 | 0.64 | 0.10 | 97 | 1015.7 |
| 20260904063515 | 68 | 270 | 7.0 | 13.0 | 0.06 | 0.60 | 0.06 | 97 | 1016.3 |
| 20260904062516 | 68 | 293 | 2.0 | 4.0 | 0.00 | 0.54 | 0.00 | 97 | 1015.7 |
| 20260904061515 | 68 | 68 | 2.0 | 4.0 | 0.00 | 0.54 | 0.00 | 97 | 1015.1 |